weather.gov     
National Weather Service

Terminal Aerodrome Forecast
NWS Homepage
This page is being discontinued on March 12, 2014.
The same data is available at this site. Please update your bookmarks.
Thank you, and we apologize for the inconvenience.
Please send an email to SR-SRH.Webmaster@noaa.gov with any concerns.


Current Version
Previous Version:    01  02  03  04  05  06  07  08  09  10  11  12  13  14  15  16  17  18  19  20  21  22  23  24  25  26  27  28  29  30  
   31  32  33  34  35  36  37  38  39  40  41  42  43  44  45  46  47  48  49  50  51  52  53  54  55  
[Printable]
848
FTUS41 KCTP 220222 AAA
TAFAOO
TAF AMD
KAOO 220222Z 2202/2224 34005KT P6SM -SHRA BKN012 OVC025
     FM220500 34008KT 3SM -SHRA BR OVC012
     FM221700 34010KT P6SM VCSH OVC025
     FM221900 34012G19KT P6SM OVC050=




848
FTUS41 KCTP 220222 AAA
TAFAOO
TAF AMD
KAOO 220222Z 2202/2224 34005KT P6SM -SHRA BKN012 OVC025
     FM220500 34008KT 3SM -SHRA BR OVC012
     FM221700 34010KT P6SM VCSH OVC025
     FM221900 34012G19KT P6SM OVC050=


U.S. Dept. of Commerce
NOAA National Weather Service
1325 East West Highway
Silver Spring, MD 20910
E-mail: w-nws.webmaster@noaa.gov
Page last modified: May 16, 2007
NATIONAL WEATHER SERVICE: for Safety, for Work, for Fun - FOR LIFE